This is the latest recevied weather packets stored in our database for station/object LU3HGB-WX. If no packets are shown the sender has not sent any weather packets the latest 10 day(s).
| Time | Temp. | Humidity | Pressure | Rain* | Wind** | Luminosity | Snow |
|---|---|---|---|---|---|---|---|
| 1777690059 | 12.78° C | 76% | 1020 hPa | 0 mm | - | 0 W/m² | - |
| 1777689759 | 12.78° C | 76% | 1020 hPa | 0 mm | - | 0 W/m² | - |
| 1777689460 | 12.78° C | 77% | 1020 hPa | 0 mm | - | 0 W/m² | - |
| 1777689160 | 13.33° C | 74% | 1020 hPa | 0 mm | - | 0 W/m² | - |
| 1777688859 | 13.89° C | 72% | 1020 hPa | 0 mm | - | 0 W/m² | - |
| 1777688560 | 13.89° C | 71% | 1019 hPa | 0 mm | - | 0 W/m² | - |
| 1777688259 | 14.44° C | 71% | 1019 hPa | 0 mm | - | 0 W/m² | - |
| 1777687960 | 14.44° C | 69% | 1019 hPa | 0 mm | - | 0 W/m² | - |
| 1777687661 | 14.44° C | 68% | 1019 hPa | 0 mm | - | 0 W/m² | - |
| 1777687360 | 14.44° C | 68% | 1019 hPa | 0 mm | - | 0 W/m² | - |
| 1777687060 | 15° C | 68% | 1019 hPa | 0 mm | - | 0 W/m² | - |
| 1777686761 | 15.56° C | 66% | 1019 hPa | 0 mm | - | 0 W/m² | - |
| 1777686460 | 16.11° C | 64% | 1019 hPa | 0 mm | - | 0 W/m² | - |
| 1777686160 | 16.67° C | 60% | 1019 hPa | 0 mm | - | 0 W/m² | - |
| 1777685860 | 16.67° C | 55% | 1018 hPa | 0 mm | - | 0 W/m² | - |
| 1777685559 | 17.22° C | 53% | 1018 hPa | 0 mm | - | 0 W/m² | - |
| 1777685259 | 17.22° C | 53% | 1018 hPa | 0 mm | - | 0 W/m² | - |
| 1777684959 | 17.78° C | 52% | 1018 hPa | 0 mm | - | 0 W/m² | - |
| 1777684659 | 17.78° C | 51% | 1018 hPa | 0 mm | - | 0 W/m² | - |
| 1777684359 | 17.78° C | 51% | 1018 hPa | 0 mm | - | 0 W/m² | - |
| 1777684059 | 17.78° C | 51% | 1017 hPa | 0 mm | - | 0 W/m² | - |
| 1777683760 | 17.78° C | 51% | 1017 hPa | 0 mm | - | 0 W/m² | - |
| 1777683460 | 17.78° C | 50% | 1017 hPa | 0 mm | - | 0 W/m² | - |
| 1777683160 | 17.78° C | 49% | 1017 hPa | 0 mm | - | 0 W/m² | - |
| 1777682859 | 18.33° C | 49% | 1017 hPa | 0 mm | - | 0 W/m² | - |
* Rain latest hour (hover to see other rain measurements)
** Current wind speed in m/s (hover to see current wind gust speed)